Вернуться в каталог

LEMUR-2 MARIO-SOUSA

АктивенНаукаSSO
NORAD 67365·PAYLOAD·🇺🇸 United States

Запущен Jan 11, 2026 с Vandenberg Space Force Base

Loading…

Ближайшие Пролёты (ближайшие 24 часа)

TLE

СвежийSource: Space-Track

Эпоха: Sep 14, 2026, 16:56 UTC

1 67365U 26004C   26257.70606973  .00002101  00000-0  22848-3 0  9990
2 67365  97.8051 254.9462 0007496 195.1786 164.9207 14.89104441 36615

Отслеживайте LEMUR-2 MARIO-SOUSA в реальном времени с AllMySat

Download on the App Store